Year,Month,Day,Hour,Minute,Value (Times are PST for temperature in C)
2017,02,20,00,00,4.10
2017,02,20,00,01,4.10
2017,02,20,00,02,4.10
2017,02,20,00,03,4.10
2017,02,20,00,04,4.10
2017,02,20,00,05,4.10
2017,02,20,00,06,4.10
2017,02,20,00,07,4.00
2017,02,20,00,08,4.00
2017,02,20,00,09,4.00
2017,02,20,00,10,3.90
2017,02,20,00,11,3.90
2017,02,20,00,12,3.90
2017,02,20,00,13,3.90
2017,02,20,00,14,3.90
2017,02,20,00,15,3.90
2017,02,20,00,16,3.90
2017,02,20,00,17,3.90
2017,02,20,00,18,3.90
2017,02,20,00,19,3.90
2017,02,20,00,20,3.90
2017,02,20,00,21,3.90
2017,02,20,00,22,3.90
2017,02,20,00,23,3.90
2017,02,20,00,24,3.90
2017,02,20,00,25,3.90
2017,02,20,00,26,3.90
2017,02,20,00,27,3.80
2017,02,20,00,28,3.80
2017,02,20,00,29,3.80
2017,02,20,00,30,3.80
2017,02,20,00,31,3.80
2017,02,20,00,32,3.80
2017,02,20,00,33,3.70
2017,02,20,00,34,3.70
2017,02,20,00,35,3.70
2017,02,20,00,36,3.70
2017,02,20,00,37,3.60
2017,02,20,00,38,3.60
2017,02,20,00,39,3.60
2017,02,20,00,40,3.60
2017,02,20,00,41,3.50
2017,02,20,00,42,3.50
2017,02,20,00,43,3.50
2017,02,20,00,44,3.50
2017,02,20,00,45,3.50
2017,02,20,00,46,3.50
2017,02,20,00,47,3.50
2017,02,20,00,48,3.50
2017,02,20,00,49,3.50
2017,02,20,00,50,3.50
2017,02,20,00,51,3.40
2017,02,20,00,52,3.40
2017,02,20,00,53,3.40
2017,02,20,00,54,3.40
2017,02,20,00,55,3.40
2017,02,20,00,56,3.40
2017,02,20,00,57,3.40
2017,02,20,00,58,3.40
2017,02,20,00,59,3.40
2017,02,20,01,00,3.40
2017,02,20,01,01,3.40
2017,02,20,01,02,3.40
2017,02,20,01,03,3.40
2017,02,20,01,04,3.40
2017,02,20,01,05,3.40
2017,02,20,01,06,3.40
2017,02,20,01,07,3.30
2017,02,20,01,08,3.30
2017,02,20,01,09,3.30
2017,02,20,01,10,3.30
2017,02,20,01,11,3.30
2017,02,20,01,12,3.30
2017,02,20,01,13,3.40
2017,02,20,01,14,3.40
2017,02,20,01,15,3.40
2017,02,20,01,16,3.40
2017,02,20,01,17,3.40
2017,02,20,01,18,3.40
2017,02,20,01,19,3.40
2017,02,20,01,20,3.40
2017,02,20,01,21,3.40
2017,02,20,01,22,3.40
2017,02,20,01,23,3.40
2017,02,20,01,24,3.40
2017,02,20,01,25,3.40
2017,02,20,01,26,3.40
2017,02,20,01,27,3.40
2017,02,20,01,28,3.40
2017,02,20,01,29,3.40
2017,02,20,01,30,3.40
2017,02,20,01,31,3.40
2017,02,20,01,32,3.50
2017,02,20,01,33,3.50
2017,02,20,01,34,3.40
2017,02,20,01,35,3.50
2017,02,20,01,36,3.40
2017,02,20,01,37,3.40
2017,02,20,01,38,3.40
2017,02,20,01,39,3.40
2017,02,20,01,40,3.40
2017,02,20,01,41,3.40
2017,02,20,01,42,3.40
2017,02,20,01,43,3.40
2017,02,20,01,44,3.40
2017,02,20,01,45,3.40
2017,02,20,01,46,3.40
2017,02,20,01,47,3.40
2017,02,20,01,48,3.40
2017,02,20,01,49,3.40
2017,02,20,01,50,3.40
2017,02,20,01,51,3.40
2017,02,20,01,52,3.50
2017,02,20,01,53,3.50
2017,02,20,01,54,3.50
2017,02,20,01,55,3.50
2017,02,20,01,56,3.60
2017,02,20,01,57,3.60
2017,02,20,01,58,3.60
2017,02,20,01,59,3.60
2017,02,20,02,00,3.60
2017,02,20,02,01,3.60
2017,02,20,02,02,3.60
2017,02,20,02,03,3.60
2017,02,20,02,04,3.60
2017,02,20,02,05,3.60
2017,02,20,02,06,3.60
2017,02,20,02,07,3.60
2017,02,20,02,08,3.60
2017,02,20,02,09,3.70
2017,02,20,02,10,3.70
2017,02,20,02,11,3.70
2017,02,20,02,12,3.70
2017,02,20,02,13,3.70
2017,02,20,02,14,3.70
2017,02,20,02,15,3.70
2017,02,20,02,16,3.70
2017,02,20,02,17,3.70
2017,02,20,02,18,3.70
2017,02,20,02,19,3.70
2017,02,20,02,20,3.70
2017,02,20,02,21,3.70
2017,02,20,02,22,3.70
2017,02,20,02,23,3.70
2017,02,20,02,24,3.70
2017,02,20,02,25,3.70
2017,02,20,02,26,3.70
2017,02,20,02,27,3.70
2017,02,20,02,28,3.70
2017,02,20,02,29,3.70
2017,02,20,02,30,3.70
2017,02,20,02,31,3.70
2017,02,20,02,32,3.70
2017,02,20,02,33,3.70
2017,02,20,02,34,3.70
2017,02,20,02,35,3.70
2017,02,20,02,36,3.70
2017,02,20,02,37,3.70
2017,02,20,02,38,3.70
2017,02,20,02,39,3.80
2017,02,20,02,40,3.80
2017,02,20,02,41,3.80
2017,02,20,02,42,3.80
2017,02,20,02,43,3.80
2017,02,20,02,44,3.80
2017,02,20,02,45,3.80
2017,02,20,02,46,3.80
2017,02,20,02,47,3.80
2017,02,20,02,48,3.80
2017,02,20,02,49,3.80
2017,02,20,02,50,3.80
2017,02,20,02,51,3.80
2017,02,20,02,52,3.80
2017,02,20,02,53,3.80
2017,02,20,02,54,3.80
2017,02,20,02,55,3.80
2017,02,20,02,56,3.80
2017,02,20,02,57,3.80
2017,02,20,02,58,3.80
2017,02,20,02,59,3.80
2017,02,20,03,00,3.80
2017,02,20,03,01,3.80
2017,02,20,03,02,3.80
2017,02,20,03,03,3.80
2017,02,20,03,04,3.80
2017,02,20,03,05,3.80
2017,02,20,03,06,3.80
2017,02,20,03,07,3.70
2017,02,20,03,08,3.70
2017,02,20,03,09,3.70
2017,02,20,03,10,3.80
2017,02,20,03,11,3.80
2017,02,20,03,12,3.80
2017,02,20,03,13,3.80
2017,02,20,03,14,3.80
2017,02,20,03,15,3.80
2017,02,20,03,16,3.80
2017,02,20,03,17,3.80
2017,02,20,03,18,3.80
2017,02,20,03,19,3.80
2017,02,20,03,20,3.80
2017,02,20,03,21,3.80
2017,02,20,03,22,3.80
2017,02,20,03,23,3.80
2017,02,20,03,24,3.80
2017,02,20,03,25,3.80
2017,02,20,03,26,3.80
2017,02,20,03,27,3.80
2017,02,20,03,28,3.90
2017,02,20,03,29,3.90
2017,02,20,03,30,3.90
2017,02,20,03,31,3.90
2017,02,20,03,32,3.90
2017,02,20,03,33,3.80
2017,02,20,03,34,3.80
2017,02,20,03,35,3.80
2017,02,20,03,36,3.80
2017,02,20,03,37,3.80
2017,02,20,03,38,3.80
2017,02,20,03,39,3.80
2017,02,20,03,40,3.80
2017,02,20,03,41,3.80
2017,02,20,03,42,3.80
2017,02,20,03,43,3.80
2017,02,20,03,44,3.80
2017,02,20,03,45,3.80
2017,02,20,03,46,3.80
2017,02,20,03,47,3.80
2017,02,20,03,48,3.80
2017,02,20,03,49,3.80
2017,02,20,03,50,3.80
2017,02,20,03,51,3.80
2017,02,20,03,52,3.90
2017,02,20,03,53,3.90
2017,02,20,03,54,3.90
2017,02,20,03,55,3.90
2017,02,20,03,56,4.00
2017,02,20,03,57,4.00
2017,02,20,03,58,4.00
2017,02,20,03,59,4.00
2017,02,20,04,00,4.00
2017,02,20,04,01,4.00
2017,02,20,04,02,4.00
2017,02,20,04,03,4.00
2017,02,20,04,04,4.00
2017,02,20,04,05,4.00
2017,02,20,04,06,4.00
2017,02,20,04,07,4.00
2017,02,20,04,08,4.00
2017,02,20,04,09,4.00
2017,02,20,04,10,4.00
2017,02,20,04,11,3.90
2017,02,20,04,12,3.90
2017,02,20,04,13,3.90
2017,02,20,04,14,3.90
2017,02,20,04,15,3.90
2017,02,20,04,16,3.90
2017,02,20,04,17,3.90
2017,02,20,04,18,3.90
2017,02,20,04,19,3.90
2017,02,20,04,20,3.90
2017,02,20,04,21,3.90
2017,02,20,04,22,3.90
2017,02,20,04,23,3.90
2017,02,20,04,24,3.90
2017,02,20,04,25,3.90
2017,02,20,04,26,3.90
2017,02,20,04,27,3.90
2017,02,20,04,28,4.00
2017,02,20,04,29,4.00
2017,02,20,04,30,4.00
2017,02,20,04,31,4.10
2017,02,20,04,32,4.10
2017,02,20,04,33,4.10
2017,02,20,04,34,4.10
2017,02,20,04,35,4.10
2017,02,20,04,36,4.10
2017,02,20,04,37,4.10
2017,02,20,04,38,4.10
2017,02,20,04,39,4.10
2017,02,20,04,40,4.10
2017,02,20,04,41,4.10
2017,02,20,04,42,4.00
2017,02,20,04,43,4.00
2017,02,20,04,44,4.00
2017,02,20,04,45,4.00
2017,02,20,04,46,4.00
2017,02,20,04,47,4.00
2017,02,20,04,48,4.10
2017,02,20,04,49,4.10
2017,02,20,04,50,4.10
2017,02,20,04,51,4.10
2017,02,20,04,52,4.10
2017,02,20,04,53,4.10
2017,02,20,04,54,4.20
2017,02,20,04,55,4.20
2017,02,20,04,56,4.20
2017,02,20,04,57,4.20
2017,02,20,04,58,4.20
2017,02,20,04,59,4.30
2017,02,20,05,00,4.30
2017,02,20,05,01,4.30
2017,02,20,05,02,4.40
2017,02,20,05,03,4.40
2017,02,20,05,04,4.40
2017,02,20,05,05,4.40
2017,02,20,05,06,4.40
2017,02,20,05,07,4.40
2017,02,20,05,08,4.50
2017,02,20,05,09,4.50
2017,02,20,05,10,4.50
2017,02,20,05,11,4.40
2017,02,20,05,12,4.40
2017,02,20,05,13,4.50
2017,02,20,05,14,4.50
2017,02,20,05,15,4.50
2017,02,20,05,16,4.50
2017,02,20,05,17,4.40
2017,02,20,05,18,4.40
2017,02,20,05,19,4.40
2017,02,20,05,20,4.40
2017,02,20,05,21,4.40
2017,02,20,05,22,4.40
2017,02,20,05,23,4.40
2017,02,20,05,24,4.40
2017,02,20,05,25,4.30
2017,02,20,05,26,4.30
2017,02,20,05,27,4.30
2017,02,20,05,28,4.30
2017,02,20,05,29,4.30
2017,02,20,05,30,4.30
2017,02,20,05,31,4.30
2017,02,20,05,32,4.30
2017,02,20,05,33,4.30
2017,02,20,05,34,4.30
2017,02,20,05,35,4.30
2017,02,20,05,36,4.40
2017,02,20,05,37,4.40
2017,02,20,05,38,4.40
2017,02,20,05,39,4.40
2017,02,20,05,40,4.40
2017,02,20,05,41,4.40
2017,02,20,05,42,4.40
2017,02,20,05,43,4.40
2017,02,20,05,44,4.40
2017,02,20,05,45,4.40
2017,02,20,05,46,4.40
2017,02,20,05,47,4.40
2017,02,20,05,48,4.30
2017,02,20,05,49,4.30
2017,02,20,05,50,4.30
2017,02,20,05,51,4.20
2017,02,20,05,52,4.20
2017,02,20,05,53,4.20
2017,02,20,05,54,4.10
2017,02,20,05,55,4.10
2017,02,20,05,56,4.10
2017,02,20,05,57,4.10
2017,02,20,05,58,4.10
2017,02,20,05,59,4.00
2017,02,20,06,00,4.00
2017,02,20,06,01,4.00
2017,02,20,06,02,4.10
2017,02,20,06,03,4.10
2017,02,20,06,04,4.10
2017,02,20,06,05,4.10
2017,02,20,06,06,4.00
2017,02,20,06,07,4.00
2017,02,20,06,08,4.00
2017,02,20,06,09,3.90
2017,02,20,06,10,3.90
2017,02,20,06,11,3.90
2017,02,20,06,12,3.80
2017,02,20,06,13,3.80
2017,02,20,06,14,3.70
2017,02,20,06,15,3.70
2017,02,20,06,16,3.70
2017,02,20,06,17,3.60
2017,02,20,06,18,3.60
2017,02,20,06,19,3.60
2017,02,20,06,20,3.60
2017,02,20,06,21,3.60
2017,02,20,06,22,3.60
2017,02,20,06,23,3.60
2017,02,20,06,24,3.60
2017,02,20,06,25,3.60
2017,02,20,06,26,3.60
2017,02,20,06,27,3.60
2017,02,20,06,28,3.60
2017,02,20,06,29,3.60
2017,02,20,09,18,4.70
2017,02,20,09,19,4.70
2017,02,20,09,20,4.70
2017,02,20,09,21,4.70
2017,02,20,09,22,4.70
2017,02,20,09,23,4.70
2017,02,20,09,24,4.70
2017,02,20,09,25,4.70
2017,02,20,09,26,4.70
2017,02,20,09,27,4.70
2017,02,20,09,28,4.70
2017,02,20,09,29,4.70
2017,02,20,09,30,4.70
2017,02,20,09,31,4.70
2017,02,20,09,32,4.70
2017,02,20,09,33,4.70
2017,02,20,09,34,4.70
2017,02,20,09,35,4.70
2017,02,20,09,36,4.70
2017,02,20,09,37,4.70
2017,02,20,09,38,4.70
2017,02,20,09,39,4.70
2017,02,20,09,40,4.70
2017,02,20,09,41,4.70
2017,02,20,09,42,4.70
2017,02,20,09,43,4.70
2017,02,20,09,44,4.70
2017,02,20,09,45,4.70
2017,02,20,09,46,4.70
2017,02,20,09,47,4.70
2017,02,20,09,48,4.70
2017,02,20,09,49,4.70
2017,02,20,09,50,4.70
2017,02,20,09,51,4.70
2017,02,20,09,52,4.70
2017,02,20,09,53,4.70
2017,02,20,09,54,4.70
2017,02,20,09,55,4.70
2017,02,20,09,56,4.70
2017,02,20,09,57,4.80
2017,02,20,09,58,4.80
2017,02,20,09,59,4.80
2017,02,20,10,00,4.80
2017,02,20,10,01,4.80
2017,02,20,10,02,4.80
2017,02,20,10,03,4.80
2017,02,20,10,04,4.80
2017,02,20,10,05,4.80
2017,02,20,10,06,4.90
2017,02,20,10,07,4.90
2017,02,20,10,08,4.90
2017,02,20,10,09,4.90
2017,02,20,10,10,4.90
2017,02,20,10,11,4.90
2017,02,20,10,12,4.90
2017,02,20,10,13,4.90
2017,02,20,10,14,4.90
2017,02,20,10,15,4.90
2017,02,20,10,16,4.90
2017,02,20,10,17,5.00
2017,02,20,10,18,5.00
2017,02,20,10,19,5.00
2017,02,20,10,20,5.00
2017,02,20,10,21,5.00
2017,02,20,10,22,5.00
2017,02,20,10,23,5.00
2017,02,20,10,24,5.10
2017,02,20,10,25,5.10
2017,02,20,10,26,5.10
2017,02,20,10,27,5.10
2017,02,20,10,28,5.10
2017,02,20,10,29,5.20
2017,02,20,10,30,5.20
2017,02,20,10,31,5.20
2017,02,20,10,32,5.20
2017,02,20,10,33,5.20
2017,02,20,10,34,5.30
2017,02,20,10,35,5.30
2017,02,20,10,36,5.30
2017,02,20,10,37,5.30
2017,02,20,10,38,5.30
2017,02,20,10,39,5.30
2017,02,20,10,40,5.40
2017,02,20,10,41,5.40
2017,02,20,10,42,5.40
2017,02,20,10,43,5.40
2017,02,20,10,44,5.40
2017,02,20,10,45,5.50
2017,02,20,10,46,5.50
2017,02,20,10,47,5.50
2017,02,20,10,48,5.50
2017,02,20,10,49,5.60
2017,02,20,10,50,5.60
2017,02,20,10,51,5.60
2017,02,20,10,52,5.60
2017,02,20,10,53,5.60
2017,02,20,10,54,5.60
2017,02,20,10,55,5.60
2017,02,20,10,56,5.60
2017,02,20,10,57,5.60
2017,02,20,10,58,5.60
2017,02,20,10,59,5.70
2017,02,20,11,00,5.70
2017,02,20,11,01,5.70
2017,02,20,11,02,5.70
2017,02,20,11,03,5.70
2017,02,20,11,04,5.70
2017,02,20,11,05,5.70
2017,02,20,11,06,5.70
2017,02,20,11,07,5.70
2017,02,20,11,08,5.70
2017,02,20,11,09,5.80
2017,02,20,11,10,5.80
2017,02,20,11,11,5.80
2017,02,20,11,12,5.80
2017,02,20,11,13,5.80
2017,02,20,11,14,5.80
2017,02,20,11,15,5.80
2017,02,20,11,16,5.90
2017,02,20,11,17,5.90
2017,02,20,11,18,5.90
2017,02,20,11,19,5.90
2017,02,20,11,20,5.90
2017,02,20,11,21,6.00
2017,02,20,11,22,6.00
2017,02,20,11,23,6.00
2017,02,20,11,24,6.10
2017,02,20,11,25,6.10
2017,02,20,11,26,6.10
2017,02,20,11,27,6.20
2017,02,20,11,28,6.20
2017,02,20,11,29,6.20
2017,02,20,11,30,6.20
2017,02,20,11,31,6.30
2017,02,20,11,32,6.30
2017,02,20,11,33,6.30
2017,02,20,11,34,6.30
2017,02,20,11,35,6.30
2017,02,20,11,36,6.40
2017,02,20,11,37,6.40
2017,02,20,11,38,6.40
2017,02,20,11,39,6.40
2017,02,20,11,40,6.50
2017,02,20,11,41,6.50
2017,02,20,11,42,6.50
2017,02,20,11,43,6.50
2017,02,20,11,44,6.60
2017,02,20,11,45,6.60
2017,02,20,11,46,6.60
2017,02,20,11,47,6.60
2017,02,20,11,48,6.60
2017,02,20,11,49,6.60
2017,02,20,11,50,6.70
2017,02,20,11,51,6.60
2017,02,20,11,52,6.60
2017,02,20,11,53,6.60
2017,02,20,11,54,6.60
2017,02,20,11,55,6.60
2017,02,20,11,56,6.60
2017,02,20,11,57,6.60
2017,02,20,11,58,6.60
2017,02,20,11,59,6.60
2017,02,20,12,00,6.60
2017,02,20,12,01,6.60
2017,02,20,12,02,6.60
2017,02,20,12,03,6.70
2017,02,20,12,04,6.70
2017,02,20,12,05,6.70
2017,02,20,12,06,6.70
2017,02,20,12,07,6.70
2017,02,20,12,08,6.70
2017,02,20,12,09,6.70
2017,02,20,12,10,6.70
2017,02,20,12,11,6.70
2017,02,20,12,12,6.70
2017,02,20,12,13,6.70
2017,02,20,12,14,6.80
2017,02,20,12,15,6.80
2017,02,20,12,16,6.80
2017,02,20,12,17,6.90
2017,02,20,12,18,6.90
2017,02,20,12,19,6.90
2017,02,20,12,20,7.00
2017,02,20,12,21,7.00
2017,02,20,12,22,7.00
2017,02,20,12,23,6.90
2017,02,20,12,24,6.90
2017,02,20,12,25,6.90
2017,02,20,12,26,6.90
2017,02,20,12,27,6.90
2017,02,20,12,28,6.90
2017,02,20,12,29,6.90
2017,02,20,12,30,6.90
2017,02,20,12,31,6.90
2017,02,20,12,32,6.90
2017,02,20,12,33,6.90
2017,02,20,12,34,6.90
2017,02,20,12,35,6.90
2017,02,20,12,36,6.90
2017,02,20,12,37,7.00
2017,02,20,12,38,7.00
2017,02,20,12,39,7.00
2017,02,20,12,40,7.10
2017,02,20,12,41,7.10
2017,02,20,12,42,7.10
2017,02,20,12,43,7.20
2017,02,20,12,44,7.20
2017,02,20,12,45,7.30
2017,02,20,12,46,7.30
2017,02,20,12,47,7.30
2017,02,20,12,48,7.30
2017,02,20,12,49,7.40
2017,02,20,12,50,7.50
2017,02,20,12,51,7.60
2017,02,20,12,52,7.60
2017,02,20,12,53,7.70
2017,02,20,12,54,7.70
2017,02,20,12,55,7.70
2017,02,20,12,56,7.80
2017,02,20,12,57,7.80
2017,02,20,12,58,7.90
2017,02,20,12,59,7.90
2017,02,20,13,00,8.00
2017,02,20,13,01,7.90
2017,02,20,13,02,7.90
2017,02,20,13,03,7.80
2017,02,20,13,04,7.80
2017,02,20,13,05,7.70
2017,02,20,13,06,7.70
2017,02,20,13,07,7.70
2017,02,20,13,08,7.70
2017,02,20,13,09,7.70
2017,02,20,13,10,7.70
2017,02,20,13,11,7.70
2017,02,20,13,12,7.70
2017,02,20,13,13,7.80
2017,02,20,13,14,7.80
2017,02,20,13,15,7.80
2017,02,20,13,16,7.80
2017,02,20,13,17,7.80
2017,02,20,13,18,7.80
2017,02,20,13,19,7.80
2017,02,20,13,20,7.80
2017,02,20,13,21,7.80
2017,02,20,13,22,7.80
2017,02,20,13,23,7.80
2017,02,20,13,24,7.80
2017,02,20,13,25,7.80
2017,02,20,13,26,7.80
2017,02,20,13,27,7.80
2017,02,20,13,28,7.70
2017,02,20,13,29,7.70
2017,02,20,13,30,7.70
2017,02,20,13,31,7.70
2017,02,20,13,32,7.70
2017,02,20,13,33,7.70
2017,02,20,13,34,7.70
2017,02,20,13,35,7.70
2017,02,20,13,36,7.70
2017,02,20,13,37,7.70
2017,02,20,13,38,7.70
2017,02,20,13,39,7.70
2017,02,20,13,40,7.80
2017,02,20,13,41,7.80
2017,02,20,13,42,7.80
2017,02,20,13,43,7.80
2017,02,20,13,44,7.80
2017,02,20,13,45,7.80
2017,02,20,13,46,7.80
2017,02,20,13,47,7.80
2017,02,20,13,48,7.80
2017,02,20,13,49,7.80
2017,02,20,13,50,7.80
2017,02,20,13,51,7.80
2017,02,20,13,52,7.80
2017,02,20,13,53,7.80
2017,02,20,13,54,7.90
2017,02,20,13,55,7.90
2017,02,20,13,56,7.90
2017,02,20,13,57,7.90
2017,02,20,13,58,7.90
2017,02,20,13,59,7.90
2017,02,20,14,00,7.90
2017,02,20,14,01,8.00
2017,02,20,14,02,8.00
2017,02,20,14,03,8.00
2017,02,20,14,04,8.00
2017,02,20,14,05,8.00
2017,02,20,14,06,8.00
2017,02,20,14,07,8.00
2017,02,20,14,08,8.00
2017,02,20,14,09,8.10
2017,02,20,14,10,8.10
2017,02,20,14,11,8.10
2017,02,20,14,12,8.10
2017,02,20,14,13,8.10
2017,02,20,14,14,8.10
2017,02,20,14,15,8.10
2017,02,20,14,16,8.10
2017,02,20,14,17,8.10
2017,02,20,14,18,8.10
2017,02,20,14,19,8.10
2017,02,20,14,20,8.10
2017,02,20,14,21,8.10
2017,02,20,14,22,8.00
2017,02,20,14,23,8.10
2017,02,20,14,24,8.10
2017,02,20,14,25,8.10
2017,02,20,14,26,8.10
2017,02,20,14,27,8.10
2017,02,20,14,28,8.10
2017,02,20,14,29,8.10
2017,02,20,14,30,8.10
2017,02,20,14,31,8.10
2017,02,20,14,32,8.20
2017,02,20,14,33,8.20
2017,02,20,14,34,8.10
2017,02,20,14,35,8.20
2017,02,20,14,36,8.20
2017,02,20,14,37,8.20
2017,02,20,14,38,8.20
2017,02,20,14,39,8.20
2017,02,20,14,40,8.20
2017,02,20,14,41,8.20
2017,02,20,14,42,8.20
2017,02,20,14,43,8.20
2017,02,20,14,44,8.30
2017,02,20,14,45,8.30
2017,02,20,14,46,8.30
2017,02,20,14,47,8.30
2017,02,20,14,48,8.30
2017,02,20,14,49,8.30
2017,02,20,14,50,8.30
2017,02,20,14,51,8.40
2017,02,20,14,52,8.40
2017,02,20,14,53,8.40
2017,02,20,14,54,8.40
2017,02,20,14,55,8.40
2017,02,20,14,56,8.40
2017,02,20,14,57,8.40
2017,02,20,14,58,8.40
2017,02,20,14,59,8.40
2017,02,20,15,00,8.40
2017,02,20,15,01,8.30
2017,02,20,15,02,8.30
2017,02,20,15,03,8.30
2017,02,20,15,04,8.30
2017,02,20,15,05,8.30
2017,02,20,15,06,8.30
2017,02,20,15,07,8.30
2017,02,20,15,08,8.30
2017,02,20,15,09,8.20
2017,02,20,15,10,8.20
2017,02,20,15,11,8.20
2017,02,20,15,12,8.20
2017,02,20,15,13,8.20
2017,02,20,15,14,8.20
2017,02,20,15,15,8.20
2017,02,20,15,16,8.20
2017,02,20,15,17,8.20
2017,02,20,15,18,8.20
2017,02,20,15,19,8.20
2017,02,20,15,20,8.20
2017,02,20,15,21,8.10
2017,02,20,15,22,8.20
2017,02,20,15,23,8.20
2017,02,20,15,24,8.20
2017,02,20,15,25,8.20
2017,02,20,15,26,8.20
2017,02,20,15,27,8.20
2017,02,20,15,28,8.20
2017,02,20,15,29,8.20
2017,02,20,15,30,8.20
2017,02,20,15,31,8.30
2017,02,20,15,32,8.30
2017,02,20,15,33,8.30
2017,02,20,15,34,8.30
2017,02,20,15,35,8.30
2017,02,20,15,36,8.30
2017,02,20,15,37,8.20
2017,02,20,15,38,8.20
2017,02,20,15,39,8.20
2017,02,20,15,40,8.20
2017,02,20,15,41,8.20
2017,02,20,15,42,8.20
2017,02,20,15,43,8.20
2017,02,20,15,44,8.20
2017,02,20,15,45,8.20
2017,02,20,15,46,8.20
2017,02,20,15,47,8.20
2017,02,20,15,48,8.20
2017,02,20,15,49,8.20
2017,02,20,15,50,8.20
2017,02,20,15,51,8.20
2017,02,20,15,52,8.20
2017,02,20,15,53,8.20
2017,02,20,15,54,8.20
2017,02,20,15,55,8.20
2017,02,20,15,56,8.20
2017,02,20,15,57,8.20
2017,02,20,15,58,8.20
2017,02,20,15,59,8.20
2017,02,20,16,00,8.20
2017,02,20,16,01,8.10
2017,02,20,16,02,8.10
2017,02,20,16,03,8.20
2017,02,20,16,04,8.20
2017,02,20,16,05,8.20
2017,02,20,16,06,8.10
2017,02,20,16,07,8.10
2017,02,20,16,08,8.20
2017,02,20,16,09,8.20
2017,02,20,16,10,8.20
2017,02,20,16,11,8.20
2017,02,20,16,12,8.20
2017,02,20,16,13,8.20
2017,02,20,16,14,8.20
2017,02,20,16,15,8.10
2017,02,20,16,16,8.10
2017,02,20,16,17,8.10
2017,02,20,16,18,8.10
2017,02,20,16,19,8.10
2017,02,20,16,20,8.10
2017,02,20,16,21,8.10
2017,02,20,16,22,8.10
2017,02,20,16,23,8.10
2017,02,20,16,24,8.10
2017,02,20,16,25,8.10
2017,02,20,16,26,8.10
2017,02,20,16,27,8.10
2017,02,20,16,28,8.10
2017,02,20,16,29,8.10
2017,02,20,16,30,8.10
2017,02,20,16,31,8.10
2017,02,20,16,32,8.10
2017,02,20,16,33,8.10
2017,02,20,16,34,8.10
2017,02,20,16,35,8.10
2017,02,20,16,36,8.10
2017,02,20,16,37,8.10
2017,02,20,16,38,8.10
2017,02,20,16,39,8.10
2017,02,20,16,40,8.10
2017,02,20,16,41,8.10
2017,02,20,16,42,8.10
2017,02,20,16,43,8.10
2017,02,20,16,44,8.00
2017,02,20,16,45,8.00
2017,02,20,16,46,8.00
2017,02,20,16,47,7.90
2017,02,20,16,48,7.90
2017,02,20,16,49,7.90
2017,02,20,16,50,7.90
2017,02,20,16,51,7.80
2017,02,20,16,52,7.80
2017,02,20,16,53,7.80
2017,02,20,16,54,7.80
2017,02,20,16,55,7.80
2017,02,20,16,56,7.80
2017,02,20,16,57,7.80
2017,02,20,16,58,7.70
2017,02,20,16,59,7.70
2017,02,20,17,00,7.70
2017,02,20,17,01,7.70
2017,02,20,17,02,7.70
2017,02,20,17,03,7.70
2017,02,20,17,04,7.70
2017,02,20,17,05,7.70
2017,02,20,17,06,7.70
2017,02,20,17,07,7.70
2017,02,20,17,08,7.70
2017,02,20,17,09,7.70
2017,02,20,17,10,7.70
2017,02,20,17,11,7.70
2017,02,20,17,12,7.60
2017,02,20,17,13,7.70
2017,02,20,17,14,7.60
2017,02,20,17,15,7.60
2017,02,20,17,16,7.60
2017,02,20,17,17,7.60
2017,02,20,17,18,7.60
2017,02,20,17,19,7.60
2017,02,20,17,20,7.60
2017,02,20,17,21,7.60
2017,02,20,17,22,7.50
2017,02,20,17,23,7.50
2017,02,20,17,24,7.50
2017,02,20,17,25,7.50
2017,02,20,17,26,7.50
2017,02,20,17,27,7.40
2017,02,20,17,28,7.40
2017,02,20,17,29,7.40
2017,02,20,17,30,7.40
2017,02,20,17,31,7.40
2017,02,20,17,32,7.40
2017,02,20,17,33,7.40
2017,02,20,17,34,7.40
2017,02,20,17,35,7.40
2017,02,20,17,36,7.40
2017,02,20,17,37,7.40
2017,02,20,17,38,7.40
2017,02,20,17,39,7.40
2017,02,20,17,40,7.30
2017,02,20,17,41,7.30
2017,02,20,17,42,7.30
2017,02,20,17,43,7.30
2017,02,20,17,44,7.30
2017,02,20,17,45,7.30
2017,02,20,17,46,7.20
2017,02,20,17,47,7.20
2017,02,20,17,48,7.20
2017,02,20,17,49,7.20
2017,02,20,17,50,7.20
2017,02,20,17,51,7.20
2017,02,20,17,52,7.10
2017,02,20,17,53,7.10
2017,02,20,17,54,7.10
2017,02,20,17,55,7.10
2017,02,20,17,56,7.10
2017,02,20,17,57,7.10
2017,02,20,17,58,7.10
2017,02,20,17,59,7.10
2017,02,20,18,00,7.00
2017,02,20,18,01,7.00
2017,02,20,18,02,7.00
2017,02,20,18,03,7.00
2017,02,20,18,04,7.00
2017,02,20,18,05,6.90
2017,02,20,18,06,6.90
2017,02,20,18,07,6.90
2017,02,20,18,08,6.90
2017,02,20,18,09,6.90
2017,02,20,18,10,6.80
2017,02,20,18,11,6.80
2017,02,20,18,12,6.80
2017,02,20,18,13,6.80
2017,02,20,18,14,6.80
2017,02,20,18,15,6.70
2017,02,20,18,16,6.70
2017,02,20,18,17,6.70
2017,02,20,18,18,6.70
2017,02,20,18,19,6.60
2017,02,20,18,20,6.60
2017,02,20,18,21,6.60
2017,02,20,18,22,6.60
2017,02,20,18,23,6.50
2017,02,20,18,24,6.50
2017,02,20,18,25,6.40
2017,02,20,18,26,6.40
2017,02,20,18,27,6.40
2017,02,20,18,28,6.30
2017,02,20,18,29,6.30
2017,02,20,18,30,6.30
2017,02,20,18,31,6.20
2017,02,20,18,32,6.20
2017,02,20,18,33,6.20
2017,02,20,18,34,6.20
2017,02,20,18,35,6.10
2017,02,20,18,36,6.10
2017,02,20,18,37,6.10
2017,02,20,18,38,6.10
2017,02,20,18,39,6.00
2017,02,20,18,40,6.00
2017,02,20,18,41,5.90
2017,02,20,18,42,5.90
2017,02,20,18,43,5.90
2017,02,20,18,44,5.90
2017,02,20,18,45,5.90
2017,02,20,18,46,5.80
2017,02,20,18,47,5.80
2017,02,20,18,48,5.80
2017,02,20,18,49,5.70
2017,02,20,18,50,5.70
2017,02,20,18,51,5.70
2017,02,20,18,52,5.70
2017,02,20,18,53,5.70
2017,02,20,18,54,5.60
2017,02,20,18,55,5.60
2017,02,20,18,56,5.60
2017,02,20,18,57,5.50
2017,02,20,18,58,5.50
2017,02,20,18,59,5.50
2017,02,20,19,00,5.40
2017,02,20,19,01,5.40
2017,02,20,19,02,5.40
2017,02,20,19,03,5.30
2017,02,20,19,04,5.30
2017,02,20,19,05,5.30
2017,02,20,19,06,5.30
2017,02,20,19,07,5.20
2017,02,20,19,08,5.20
2017,02,20,19,09,5.20
2017,02,20,19,10,5.20
2017,02,20,19,11,5.20
2017,02,20,19,12,5.20
2017,02,20,19,13,5.20
2017,02,20,19,14,5.10
2017,02,20,19,15,5.10
2017,02,20,19,16,5.10
2017,02,20,19,17,5.10
2017,02,20,19,18,5.10
2017,02,20,19,19,5.10
2017,02,20,19,20,5.10
2017,02,20,19,21,5.10
2017,02,20,19,22,5.10
2017,02,20,19,23,5.10
2017,02,20,19,24,5.10
2017,02,20,19,25,5.10
2017,02,20,19,26,5.10
2017,02,20,19,27,5.10
2017,02,20,19,28,5.10
2017,02,20,19,29,5.00
2017,02,20,19,30,5.00
2017,02,20,19,31,5.00
2017,02,20,19,32,5.00
2017,02,20,19,33,5.00
2017,02,20,19,34,4.90
2017,02,20,19,35,4.90
2017,02,20,19,36,4.90
2017,02,20,19,37,4.90
2017,02,20,19,38,4.90
2017,02,20,19,39,4.90
2017,02,20,19,40,4.90
2017,02,20,19,41,4.90
2017,02,20,19,42,4.90
2017,02,20,19,43,4.80
2017,02,20,19,44,4.80
2017,02,20,19,45,4.80
2017,02,20,19,46,4.80
2017,02,20,19,47,4.80
2017,02,20,19,48,4.80
2017,02,20,19,49,4.80
2017,02,20,19,50,4.80
2017,02,20,19,51,4.80
2017,02,20,19,52,4.80
2017,02,20,19,53,4.80
2017,02,20,19,54,4.80
2017,02,20,19,55,4.70
2017,02,20,19,56,4.70
2017,02,20,19,57,4.70
2017,02,20,19,58,4.70
2017,02,20,19,59,4.70
2017,02,20,20,00,4.70
2017,02,20,20,01,4.70
2017,02,20,20,02,4.70
2017,02,20,20,03,4.70
2017,02,20,20,04,4.70
2017,02,20,20,05,4.60
2017,02,20,20,06,4.60
2017,02,20,20,07,4.60
2017,02,20,20,08,4.60
2017,02,20,20,09,4.60
2017,02,20,20,10,4.50
2017,02,20,20,11,4.50
2017,02,20,20,12,4.50
2017,02,20,20,13,4.50
2017,02,20,20,14,4.50
2017,02,20,20,15,4.40
2017,02,20,20,16,4.40
2017,02,20,20,17,4.40
2017,02,20,20,18,4.40
2017,02,20,20,19,4.40
2017,02,20,20,20,4.40
2017,02,20,20,21,4.40
2017,02,20,20,22,4.30
2017,02,20,20,23,4.30
2017,02,20,20,24,4.30
2017,02,20,20,25,4.30
2017,02,20,20,26,4.30
2017,02,20,20,27,4.30
2017,02,20,20,28,4.20
2017,02,20,20,29,4.20
2017,02,20,20,30,4.20
2017,02,20,20,31,4.20
2017,02,20,20,32,4.10
2017,02,20,20,33,4.10
2017,02,20,20,34,4.10
2017,02,20,20,35,4.10
2017,02,20,20,36,4.00
2017,02,20,20,37,4.00
2017,02,20,20,38,4.00
2017,02,20,20,39,4.00
2017,02,20,20,40,4.00
2017,02,20,20,41,4.00
2017,02,20,20,42,4.00
2017,02,20,20,43,4.00
2017,02,20,20,44,4.00
2017,02,20,20,45,4.00
2017,02,20,20,46,4.00
2017,02,20,20,47,4.00
2017,02,20,20,48,4.00
2017,02,20,20,49,4.00
2017,02,20,20,50,3.90
2017,02,20,20,51,3.90
2017,02,20,20,52,3.90
2017,02,20,20,53,3.90
2017,02,20,20,54,3.90